Ramona, CA

4:17 PM PDT on July 24, 2017 (GMT -0700)
Ramona

Weather History for KRNM - October, 2012

Change the Weather History Date:

Saturday, October 13, 2012

  Actual Average Record
Temperature  
Mean Temperature 61 °F 64 °F  
Max Temperature 78 °F 80 °F 103 °F (1978)
Min Temperature 43 °F 48 °F 36 °F (1975)
Degree Days  
Heating Degree Days 4 3  
Month to date heating degree days 26 28  
Since 1 July heating degree days 26 46  
Cooling Degree Days 0 2  
Month to date cooling degree days 45 31  
Year to date cooling degree days 1004 824  
Growing Degree Days 10 (Base 50)    
Moisture  
Dew Point 47 °F    
Average Humidity 70    
Maximum Humidity 100    
Minimum Humidity 39    
Precipitation  
Precipitation 0.00 in 0.02 in 0.68 in (1987)
Month to date precipitation 0.63 0.20  
Year to date precipitation 7.70 12.10  
Since 1 July precipitation 0.78  
Snow  
Snow 0.00 in - - ()
Month to date snowfall 0.0  
Year to date snowfall 0.0  
Snow Depth 0.00 in    
Sea Level Pressure  
Sea Level Pressure 30.13 in    
Wind  
Wind Speed 3 mph (WSW)    
Max Wind Speed 23 mph    
Max Gust Speed 39 mph    
Visibility 5 miles    
Events Fog    
T = Trace of Precipitation, MM = Missing Value Source: NWS Daily Summary

Daily Weather History Graph

Daily Weather History Graph

Search for Another Location

Airport or City:

Trip Planner

Search our weather history database for the weather conditions in past years. The results will help you decide how hot, cold, wet, or windy it might be!

Date:

Astronomy

Oct. 13, 2012 Rise Set
Actual Time 6:50 AM PDT 6:16 PM PDT
Civil Twilight 6:25 AM PDT 6:40 PM PDT
Nautical Twilight 5:57 AM PDT 7:09 PM PDT
Astronomical Twilight 5:28 AM PDT 7:38 PM PDT
Moon 4:50 AM PDT (10/13) 4:59 PM PDT (10/13)
Length of Visible Light 12h 14m
Length of Day
11h 25m
Waning Crescent, 4% of the Moon is Illuminated
Oct 13
Waning Crescent
Oct 15
New
Oct 21
First Quarter
Oct 29
Full
Nov 6
Last Quarter

Hourly Weather History & Observations

Time (PDT) Temp. Windchill Dew Point Humidity Pressure Visibility Wind Dir Wind Speed Gust Speed Precip Events Conditions
12:51 AM 46.4 °F 45.2 °F 46.4 °F 100% 30.16 in 1.8 mi ESE 3.5 mph - N/A   Clear
12:53 AM 46.9 °F - 46.0 °F 97% 30.15 in 1.2 mi ESE 3.5 mph - N/A   Partly Cloudy
12:55 AM 46.4 °F 45.2 °F 46.4 °F 100% 30.16 in 0.8 mi SE 3.5 mph - N/A   Mist
1:03 AM 46.4 °F - 44.6 °F 93% 30.16 in 0.2 mi Calm Calm - N/A Fog Fog
1:11 AM 46.4 °F - 46.4 °F 100% 30.16 in 1.0 mi Calm Calm - N/A   Mist
1:16 AM 48.2 °F - 46.4 °F 93% 30.16 in 2.5 mi Calm Calm - N/A   Scattered Clouds
1:23 AM 46.4 °F - 46.4 °F 100% 30.16 in 8.0 mi Calm Calm - N/A   Partly Cloudy
1:31 AM 46.4 °F - 46.4 °F 100% 30.16 in 1.5 mi Calm Calm - N/A   Clear
1:33 AM 46.4 °F - 46.4 °F 100% 30.16 in 0.8 mi Calm Calm - N/A   Clear
1:53 AM 46.0 °F 44.8 °F 45.0 °F 96% 30.15 in 0.8 mi ESE 3.5 mph - N/A   Clear
2:01 AM 44.6 °F - 44.6 °F 100% 30.16 in 0.2 mi Calm Calm - N/A Fog Fog
2:25 AM 46.4 °F - 44.6 °F 93% 30.16 in 1.0 mi Calm Calm - N/A   Mist
2:27 AM 46.4 °F - 44.6 °F 93% 30.16 in 2.0 mi Calm Calm - N/A   Partly Cloudy
2:34 AM 46.4 °F 45.2 °F 46.4 °F 100% 30.16 in 8.0 mi East 3.5 mph - N/A   Partly Cloudy
2:53 AM 46.0 °F - 45.0 °F 96% 30.14 in 9.0 mi Calm Calm - N/A   Clear
3:53 AM 46.0 °F - 45.0 °F 96% 30.14 in 7.0 mi Calm Calm - N/A   Clear
4:53 AM 45.0 °F - 43.0 °F 93% 30.14 in 10.0 mi Calm Calm - N/A   Clear
5:43 AM 42.8 °F - 42.8 °F 100% 30.17 in 2.0 mi Calm Calm - N/A   Clear
5:53 AM 44.1 °F - 43.0 °F 96% 30.16 in 6.0 mi Calm Calm - N/A   Clear
6:01 AM 44.6 °F - 42.8 °F 93% 30.17 in 1.5 mi Calm Calm - N/A   Clear
6:04 AM 44.6 °F - 42.8 °F 93% 30.17 in 0.8 mi Calm Calm - N/A   Clear
6:14 AM 42.8 °F - 42.8 °F 100% 30.17 in 1.0 mi Calm Calm - N/A   Mist
6:20 AM 42.8 °F - 42.8 °F 100% 30.17 in 2.5 mi Calm Calm - N/A   Partly Cloudy
6:27 AM 44.6 °F - 42.8 °F 93% 30.16 in 5.0 mi Calm Calm - N/A   Partly Cloudy
6:55 AM 42.8 °F - 42.8 °F 100% 30.17 in 1.8 mi North - - N/A   Clear
7:03 AM 42.8 °F 34.8 °F 42.8 °F 100% 30.17 in 0.2 mi SSW 17.3 mph 39.1 mph N/A Fog Fog
7:20 AM 42.8 °F - 42.8 °F 100% 30.17 in 0.8 mi North - - N/A   Clear
7:24 AM 44.6 °F - 42.8 °F 93% 30.17 in 1.2 mi North - - N/A   Clear
7:27 AM 44.6 °F - 42.8 °F 93% 30.17 in 3.0 mi North - - N/A   Clear
7:53 AM 48.0 °F - 46.9 °F 96% 30.17 in 10.0 mi Calm Calm - N/A   Clear
8:53 AM 55.9 °F - 51.1 °F 84% 30.17 in 10.0 mi Calm Calm - N/A   Clear
9:53 AM 63.0 °F - 51.1 °F 65% 30.18 in 10.0 mi Calm Calm - N/A   Clear
10:53 AM 66.0 °F - 48.9 °F 54% 30.16 in 10.0 mi Calm Calm - N/A   Clear
11:53 AM 69.1 °F - 50.0 °F 51% 30.14 in 10.0 mi WNW 6.9 mph - N/A   Clear
12:53 PM 72.0 °F - 48.0 °F 43% 30.11 in 10.0 mi WNW 5.8 mph - N/A   Clear
1:53 PM 75.9 °F - 50.0 °F 40% 30.07 in 10.0 mi Variable 4.6 mph - N/A   Clear
2:53 PM 77.0 °F - 50.0 °F 39% 30.04 in 10.0 mi West 9.2 mph - N/A   Clear
3:53 PM 75.9 °F - 55.0 °F 48% 30.03 in 10.0 mi WNW 11.5 mph - N/A   Clear
4:53 PM 73.9 °F - 55.9 °F 53% 30.02 in 10.0 mi West 9.2 mph - N/A   Clear
5:53 PM 68.0 °F - 55.9 °F 65% 30.03 in 10.0 mi West 8.1 mph - N/A   Clear
6:53 PM 62.1 °F - 55.0 °F 78% 30.06 in 10.0 mi WNW 3.5 mph - N/A   Clear
7:53 PM 59.0 °F - 54.0 °F 83% 30.07 in 10.0 mi Calm Calm - N/A   Clear
8:53 PM 57.0 °F - 54.0 °F 89% 30.07 in 10.0 mi Calm Calm - N/A   Clear
9:53 PM 55.9 °F - 53.1 °F 90% 30.07 in 9.0 mi Calm Calm - N/A   Clear
10:53 PM 53.1 °F - 52.0 °F 96% 30.06 in 7.0 mi Calm Calm - N/A   Clear
11:53 PM 52.0 °F - 51.1 °F 97% 30.06 in 9.0 mi Calm Calm - N/A   Clear